Regional Weather Roundup
Issued by NWS

Home | Current Version | Previous Version | Graphics & Text | Print | Product List | Glossary On
Versions: 1 2 3 4 5 6 7 8 9 10 11 12 13 14 15 16 17 18 19 20 21 22 23 24 25 26 27 28 29 30 31 32 33 34 35 36 37 38 39 40 41 42 43 44 45 46 47 48 49 50
000
ASUS43 KMPX 291410
RWRMN
WEATHER ROUNDUP FOR MINNESOTA
NATIONAL WEATHER SERVICE TWIN CITIES/CHANHASSEN MN
900 AM CDT FRI AUG 29 2014


NOTE: "FAIR" INDICATES FEW OR NO CLOUDS BELOW 12,000 FEET WITH NO
SIGNIFICANT WEATHER AND/OR OBSTRUCTIONS TO VISIBILITY. N/A MEANS
CURRENT SKY AND/OR WEATHER CONDITIONS ARE NOT AVAILABLE.

MNZ060>063-068>070-291500-
   Twin Cities Metro

CITY           SKY/WX    TMP DP  RH WIND       PRES   REMARKS
TWIN CITIES    CLOUDY    70  68  93 S8        29.79F
ST PAUL        CLOUDY    70  68  93 S8        29.79F
CRYSTAL        PTSUNNY   71  67  87 S8        29.77F
BLAINE         PTSUNNY   72  70  94 S8        29.79S FOG
LAKEVILLE      CLOUDY    68  66  94 S6        29.81S
EDEN PRAIRIE   PTSUNNY   71  69  93 S7        29.78F
SOUTH ST PAUL  CLOUDY    70  67  92 SE7       29.79F
LAKE ELMO      CLOUDY    70  68  94 S9        29.81F
$$
MNZ001>005-007-008-013>017-022>024-027-028-291500-
   Northwest Minnesota

CITY           SKY/WX    TMP DP  RH WIND       PRES   REMARKS
BEMIDJI        CLOUDY    64  63  95 SE6       29.79S
HALLOCK        CLOUDY    66  64  94 S7        29.75F
ROSEAU         PTSUNNY   66  61  82 SE7       29.78F
WARROAD        CLOUDY    64  61  88 CALM      29.79S
THIEF RVR FALL CLOUDY    64  63  94 CALM      29.79S
CROOKSTON      CLOUDY    66  64  94 S3        29.77F FOG
FOSSTON        CLOUDY    64  61  88 SE3       29.79S FOG
DETROIT LAKES  DRIZZLE   64  64 100 S5        29.80S
MOORHEAD       CLOUDY    66  66 100 CALM      29.78S FOG
PARK RAPIDS    CLOUDY    64  64 100 SE5       29.79F FOG
MAHNOMEN       CLOUDY    65  64  97 CALM      29.77F
$$
MNZ006-009>011-018-025>026-291500-
   North Central Minnesota

CITY           SKY/WX    TMP DP  RH WIND       PRES   REMARKS
BAUDETTE       FOG       63  62  97 SE3       29.79F VSB 1
FLAG ISLAND    CLOUDY    64  61  88 SW3       29.78F
INTL FALLS     LGT RAIN  61  60  97 E5        29.82F
WASKISH        CLOUDY    64  63  94 CALM      29.80F
BIG FORK       LGT RAIN  63  61  94 CALM      29.82S
LONGVILLE      DRIZZLE   63  63 100 CALM      29.79F
GRAND RAPIDS   CLOUDY    63  59  88 CALM      29.81F
CRANE LAKE     LGT RAIN  59  57  94 CALM      29.86S
ORR            RAIN      61  57  88 CALM      29.81F
COOK           HVY RAIN  61  59  94 NE3       29.84F VSB 1
WALKER         CLOUDY    63  63  99 SE3       29.79F FOG
$$
MNZ012-019>021-037-291500-
   Northeast Minnesota

CITY           SKY/WX    TMP DP  RH WIND       PRES   REMARKS
DULUTH         DRZL/FOG  61  59  93 SE10      29.81F VSB 1
ELY            HVY RAIN  59  57  94 E5        29.84F
HIBBING        LGT RAIN  62  59  90 NW9       29.82S FOG
EVELETH        DRIZZLE   59  59 100 CALM      29.83F
DULUTH HARBOR  RAIN      63  61  94 E8        29.81F
TWO HARBORS    DRIZZLE   61  55  82 E6        29.82F
SILVER BAY     CLOUDY    59  59 100 E5        29.82F FOG
GRAND MARAIS     N/A     62  58  86 E6        29.87F
G MARAIS ARPRT CLOUDY    57  54  88 E3        29.90F
$$
MNZ029>031-032-039>041-046>048-054>057-064-291500-
   West Central Minnesota

CITY           SKY/WX    TMP DP  RH WIND       PRES   REMARKS
FERGUS FALLS   DRIZZLE   64  64 100 CALM      29.78S
WHEATON        CLOUDY    63  63 100 CALM      29.79S
MORRIS         CLOUDY    66  66 100 CALM      29.78S FOG
ALEXANDRIA     HVY RAIN  65  64  97 W5        29.81R FOG
ELBOW LAKE     LGT RAIN  65  64  99 E3        29.78F
WADENA         CLOUDY    64  63  94 CALM      29.78F FOG
GLENWOOD       CLOUDY    64  64 100 CALM      29.79S VSB 1/2
APPLETON       CLOUDY    68  64  88 CALM      29.77R FOG
BENSON         FOG       66  66 100 N7        29.76F VSB 1
ORTONVILLE     LGT RAIN  64  63  94 NW3       29.77F
MADISON        PTSUNNY   70  66  88 N3        29.78R FOG
WILLMAR        TSTM      66  64  94 CALM      29.78S
$$
MNZ033>034-036-042>043-049>051-058-059-291500-
   Central Minnesota

CITY           SKY/WX    TMP DP  RH WIND       PRES   REMARKS
ST CLOUD       TSTM      69  67  93 W6        29.75F VSB 3/4
SAUK CENTRE    TSTM      65  64  99 CALM      29.78F VSB 1
PAYNESVILLE    TSTM      64  64 100 E6        29.77S
AITKIN           N/A     66  61  82 CALM      29.78F
PINE RIVER     CLOUDY    64  64 100 CALM      29.83S
BRAINERD       CLOUDY    64  63  96 CALM      29.78F
STAPLES        CLOUDY    63  63 100 CALM      29.78F
LONG PRAIRIE   CLOUDY    63  63 100 CALM      29.79S
LITTLE FALLS   RAIN      64  63  94 CALM      29.77F
LITCHFIELD     TSTM      70  70 100 SW3       29.80R
BUFFALO        CLOUDY    71  65  83 S9        29.78F
MAPLE LAKE     PTSUNNY   71  70  96 S6        29.78F
$$
MNZ037-044-045-052-053-291500-
   East Central Minnesota

CITY           SKY/WX    TMP DP  RH WIND       PRES   REMARKS
PRINCETON      CLOUDY    72  70  94 S5        29.77F
MORA           CLOUDY    61  59  94 CALM      29.81R
CAMBRIDGE      CLOUDY    72  63  73 SE7       29.76F HAZE
RUSH CITY      CLOUDY    65  64  96 SE7       29.79F
MOOSE LAKE     CLOUDY    63  61  94 CALM      29.78F
HINCKLEY       TSTM      63  63 100 CALM      29.81R
CLOQUET        CLOUDY    61  61 100 E8        29.81F
MCGREGOR         N/A    N/A N/A N/A SE3       29.80S
$$
MNZ071>073-080-081-089-090-097-098-291500-
   Southwest Minnesota

CITY           SKY/WX    TMP DP  RH WIND       PRES   REMARKS
MONTEVIDEO     CLOUDY    66  66 100 CALM      29.78R THUNDER FOG
GRANITE FALLS  CLOUDY    67  67 100 CALM      29.78F THUNDER FOG
CANBY          CLOUDY    66  66  98 CALM      29.79R
MARSHALL       CLOUDY    66  64  94 NW3       29.77S VSB 1/2
REDWOOD FALLS  CLOUDY    72  67  84 S12       29.77S
OLIVIA         CLOUDY    70  68  94 SW8       29.77S
PIPESTONE      PTSUNNY   70  68  94 SW8       29.79F FOG
WINDOM         CLOUDY    70  66  88 S9        29.81S
WORTHINGTON    CLOUDY    70  66  88 S12       29.82S
JACKSON        CLOUDY    72  64  78 SW9       29.82S
TRACY          CLOUDY    73  70  92 SW9       29.77F THUNDER FOG
SLAYTON        CLOUDY    69  68  97 S8        29.80F FOG
$$
MNZ065>067-074>077-082>085-091>093-291500-
   South Central Minnesota

CITY           SKY/WX    TMP DP  RH WIND       PRES   REMARKS
MANKATO        PTSUNNY   70  64  83 S7        29.80S
NEW ULM        PTSUNNY   70  70 100 SW6       29.79S
ST JAMES       CLOUDY    72  66  83 S6        29.81S
FAIRMONT       CLOUDY    66  64  94 S8        29.81S
GLENCOE        PTSUNNY   71  66  85 S8        29.77F
FARIBAULT      CLOUDY    72  66  83 SE7       29.82S
OWATONNA       CLOUDY    72  66  83 S5        29.82S
WASECA         CLOUDY    70  63  78 S5        29.83S
ALBERT LEA     PTSUNNY   70  68  94 S7        29.82S
$$
MNZ078>079-086>088-094>096-291500-
   Southeast Minnesota

CITY           SKY/WX    TMP DP  RH WIND       PRES   REMARKS
ROCHESTER      PTSUNNY   70  66  87 S13G22    29.84F
RED WING       PTSUNNY   72  68  88 SE7       29.81S
STANTON        CLOUDY    71  67  87 SE7       29.80S
DODGE CENTER   CLOUDY    70  66  88 S8        29.84R
WINONA         CLOUDY    70  68  94 SE6       29.84F
AUSTIN         CLOUDY    70  66  88 S9        29.83S
PRESTON        MOSUNNY   69  69 100 S3        29.86F
$$
ABBREVIATIONS USED IN REMARKS
   TC - TEMPERATURES IN CELSIUS
  WCI - WIND CHILL INDEX
   HX - HEAT INDEX
  VSB - VISIBILITY
$$



USA.gov is the U.S. government's official web portal to all federal, state and local government web resources and services.